When you browse on this site, cookies collect data to enhance your experience and personalize the content and advertising you see.
Visit our Privacy Policy to learn more. By continuing to use the site, you agree to this use of cookies and data.
  • In Schweiz
  • Länderverzeichnis
  • Für 7 Tage
  • Wassertemperatur
  • Wetterkarte
  • Widgets
  • user-avatar
    Anmelden

    Stündliche Wetter Rangpur

    Heute, 27 Februar, Donnerstag

    Zeit Temperatur Niederschläge Wind Luftdruck Luftfeuchtigkeit
    00:00 +20°C° 0 mm 2 m/S 759 mmHg 57%
    01:00 +20°C° 0 mm 1 m/S 758 mmHg 61%
    02:00 +20°C° 0 mm 1 m/S 758 mmHg 66%
    03:00 +19°C° 0 mm 1 m/S 758 mmHg 70%
    04:00 +19°C° 0 mm 1 m/S 758 mmHg 74%
    05:00 +18°C° 0 mm 1 m/S 758 mmHg 78%
    06:00 +17°C° 0 mm 2 m/S 758 mmHg 95%
    07:00 +18°C° 0 mm 2 m/S 758 mmHg 87%
    08:00 +20°C° 0 mm 2 m/S 759 mmHg 78%
    09:00 +21°C° 0 mm 3 m/S 759 mmHg 70%
    10:00 +24°C° 0 mm 2 m/S 759 mmHg 61%
    11:00 +26°C° 0 mm 2 m/S 758 mmHg 52%
    12:00 +27°C° 0 mm 1 m/S 758 mmHg 43%
    13:00 +28°C° 0 mm 1 m/S 757 mmHg 40%
    14:00 +29°C° 0 mm 1 m/S 756 mmHg 36%
    15:00 +30°C° 0 mm 1 m/S 755 mmHg 32%
    16:00 +29°C° 0 mm 1 m/S 755 mmHg 33%
    17:00 +28°C° 0 mm 1 m/S 755 mmHg 35%
    18:00 +27°C° 0 mm 1 m/S 755 mmHg 36%
    19:00 +26°C° 0 mm 1 m/S 756 mmHg 38%
    20:00 +26°C° 0 mm 1 m/S 756 mmHg 41%
    21:00 +25°C° 0 mm 1 m/S 757 mmHg 43%
    22:00 +24°C° 0 mm 1 m/S 757 mmHg 44%
    23:00 +24°C° 0 mm 1 m/S 757 mmHg 46%

    Morgen, 28 Februar, Freitag

    Zeit Temperatur Niederschläge Wind Luftdruck Luftfeuchtigkeit
    00:00 +23°C° 0 mm 1 m/S 757 mmHg 48%
    01:00 +23°C° 0 mm 1 m/S 756 mmHg 49%
    02:00 +22°C° 0 mm 1 m/S 756 mmHg 51%
    03:00 +21°C° 0 mm 2 m/S 755 mmHg 52%
    04:00 +20°C° 0 mm 2 m/S 756 mmHg 55%
    05:00 +20°C° 0 mm 2 m/S 756 mmHg 58%
    06:00 +19°C° 0 mm 3 m/S 756 mmHg 60%
    07:00 +21°C° 0 mm 3 m/S 757 mmHg 57%
    08:00 +22°C° 0 mm 4 m/S 757 mmHg 53%
    09:00 +25°C° 0 mm 4 m/S 758 mmHg 50%
    10:00 +27°C° 0 mm 4 m/S 757 mmHg 44%
    11:00 +28°C° 0 mm 4 m/S 757 mmHg 38%
    12:00 +30°C° 0 mm 4 m/S 757 mmHg 33%
    13:00 +30°C° 0 mm 3 m/S 756 mmHg 30%
    14:00 +31°C° 0 mm 3 m/S 755 mmHg 28%
    15:00 +31°C° 0 mm 2 m/S 754 mmHg 25%
    16:00 +30°C° 0 mm 2 m/S 754 mmHg 27%
    17:00 +29°C° 0 mm 1 m/S 754 mmHg 28%
    18:00 +28°C° 0 mm 1 m/S 754 mmHg 30%
    19:00 +28°C° 0 mm 1 m/S 755 mmHg 32%
    20:00 +27°C° 0 mm 2 m/S 755 mmHg 34%
    21:00 +26°C° 0 mm 2 m/S 756 mmHg 37%
    22:00 +25°C° 0 mm 2 m/S 756 mmHg 39%
    23:00 +25°C° 0 mm 2 m/S 756 mmHg 41%

    übermorgen, 29 Februar, Samstag

    Zeit Temperatur Niederschläge Wind Luftdruck Luftfeuchtigkeit
    00:00 +24°C° 0 mm 1 m/S 756 mmHg 43%
    01:00 +23°C° 0 mm 2 m/S 755 mmHg 45%
    02:00 +23°C° 0 mm 2 m/S 755 mmHg 47%
    03:00 +21°C° 0 mm 2 m/S 754 mmHg 49%
    04:00 +21°C° 0 mm 2 m/S 754 mmHg 51%
    05:00 +21°C° 0 mm 2 m/S 754 mmHg 52%
    06:00 +20°C° 0 mm 2 m/S 754 mmHg 54%
    07:00 +23°C° 0 mm 2 m/S 755 mmHg 51%
    08:00 +25°C° 0 mm 3 m/S 755 mmHg 48%
    09:00 +26°C° 0 mm 3 m/S 756 mmHg 44%
    10:00 +28°C° 0 mm 3 m/S 756 mmHg 40%
    11:00 +29°C° 0 mm 3 m/S 756 mmHg 35%
    12:00 +31°C° 0 mm 3 m/S 755 mmHg 31%
    13:00 +31°C° 0 mm 3 m/S 755 mmHg 29%
    14:00 +32°C° 0 mm 2 m/S 754 mmHg 27%
    15:00 +32°C° 0 mm 1 m/S 753 mmHg 25%
    16:00 +31°C° 0 mm 1 m/S 753 mmHg 26%
    17:00 +31°C° 0 mm 1 m/S 753 mmHg 28%
    18:00 +30°C° 0 mm 1 m/S 753 mmHg 30%
    19:00 +29°C° 0 mm 1 m/S 754 mmHg 31%
    20:00 +28°C° 0 mm 1 m/S 754 mmHg 32%
    21:00 +27°C° 0 mm 2 m/S 755 mmHg 34%
    22:00 +26°C° 0 mm 2 m/S 755 mmHg 34%
    23:00 +26°C° 0 mm 1 m/S 755 mmHg 35%

    1 März, Sonntag

    Zeit Temperatur Niederschläge Wind Luftdruck Luftfeuchtigkeit
    00:00 +25°C° 0 mm 1 m/S 755 mmHg 36%
    01:00 +25°C° 0 mm 1 m/S 754 mmHg 38%
    02:00 +24°C° 0 mm 1 m/S 754 mmHg 40%
    03:00 +24°C° 0 mm 1 m/S 754 mmHg 42%
    04:00 +23°C° 0 mm 2 m/S 754 mmHg 44%
    05:00 +23°C° 0 mm 2 m/S 754 mmHg 46%
    06:00 +21°C° 0 mm 2 m/S 754 mmHg 48%
    07:00 +24°C° 0 mm 2 m/S 755 mmHg 45%
    08:00 +25°C° 0 mm 2 m/S 756 mmHg 42%
    09:00 +27°C° 0 mm 3 m/S 756 mmHg 39%
    10:00 +29°C° 0 mm 2 m/S 756 mmHg 35%
    11:00 +31°C° 0 mm 2 m/S 756 mmHg 31%
    12:00 +32°C° 0 mm 1 m/S 755 mmHg 27%
    13:00 +33°C° 0 mm 1 m/S 754 mmHg 25%
    14:00 +34°C° 0 mm 2 m/S 754 mmHg 24%
    15:00 +35°C° 0 mm 2 m/S 753 mmHg 22%
    16:00 +34°C° 0 mm 2 m/S 753 mmHg 24%
    17:00 +32°C° 0 mm 2 m/S 753 mmHg 26%
    18:00 +31°C° 0 mm 2 m/S 752 mmHg 27%
    19:00 +30°C° 0 mm 2 m/S 753 mmHg 29%
    20:00 +29°C° 0 mm 1 m/S 753 mmHg 30%
    21:00 +28°C° 0 mm 1 m/S 754 mmHg 31%
    22:00 +27°C° 0 mm 1 m/S 754 mmHg 32%
    23:00 +27°C° 0 mm 1 m/S 754 mmHg 34%

    2 März, Montag

    Zeit Temperatur Niederschläge Wind Luftdruck Luftfeuchtigkeit
    00:00 +24°C° 0 mm 0 m/S 754 mmHg 35%
    01:00 +26°C° 0 mm 1 m/S 753 mmHg 37%
    02:00 +25°C° 0 mm 1 m/S 753 mmHg 38%
    03:00 +24°C° 0 mm 1 m/S 753 mmHg 40%
    04:00 +24°C° 0 mm 1 m/S 753 mmHg 42%
    05:00 +23°C° 0 mm 1 m/S 753 mmHg 43%
    06:00 +23°C° 0 mm 1 m/S 753 mmHg 44%
    07:00 +24°C° 0 mm 1 m/S 754 mmHg 41%
    08:00 +26°C° 0 mm 2 m/S 755 mmHg 38%
    09:00 +28°C° 0 mm 2 m/S 756 mmHg 35%
    10:00 +29°C° 0 mm 2 m/S 755 mmHg 32%
    11:00 +31°C° 0 mm 2 m/S 755 mmHg 29%
    12:00 +33°C° 0 mm 1 m/S 755 mmHg 26%
    13:00 +34°C° 0 mm 2 m/S 754 mmHg 24%
    14:00 +35°C° 0 mm 3 m/S 753 mmHg 23%
    15:00 +36°C° 0 mm 4 m/S 753 mmHg 21%
    16:00 +35°C° 0 mm 3 m/S 752 mmHg 24%
    17:00 +33°C° 0 mm 3 m/S 752 mmHg 26%
    18:00 +31°C° 0 mm 2 m/S 752 mmHg 29%
    19:00 +30°C° 0.1 mm 3 m/S 752 mmHg 33%
    20:00 +29°C° 0.1 mm 3 m/S 753 mmHg 37%
    21:00 +27°C° 0.1 mm 3 m/S 753 mmHg 40%
    22:00 +26°C° 0 mm 3 m/S 754 mmHg 44%
    23:00 +25°C° 0 mm 3 m/S 754 mmHg 47%

    3 März, Dienstag

    Zeit Temperatur Niederschläge Wind Luftdruck Luftfeuchtigkeit
    00:00 +25°C° 0 mm 2 m/S 754 mmHg 50%
    01:00 +24°C° 0.1 mm 2 m/S 753 mmHg 52%
    02:00 +24°C° 0.1 mm 2 m/S 753 mmHg 53%
    03:00 +23°C° 0.1 mm 2 m/S 753 mmHg 55%
    04:00 +23°C° 0 mm 2 m/S 753 mmHg 57%
    05:00 +21°C° 0 mm 2 m/S 753 mmHg 59%
    06:00 +21°C° 0 mm 2 m/S 753 mmHg 62%
    07:00 +22°C° 0 mm 3 m/S 754 mmHg 58%
    08:00 +25°C° 0 mm 3 m/S 754 mmHg 54%
    09:00 +26°C° 0 mm 4 m/S 755 mmHg 51%
    10:00 +28°C° 0 mm 4 m/S 755 mmHg 47%
    11:00 +29°C° 0 mm 4 m/S 754 mmHg 43%
    12:00 +31°C° 0 mm 3 m/S 754 mmHg 39%
    13:00 +33°C° 0 mm 3 m/S 753 mmHg 35%
    14:00 +34°C° 0 mm 2 m/S 752 mmHg 32%
    15:00 +34°C° 0 mm 2 m/S 751 mmHg 29%
    16:00 +34°C° 0 mm 2 m/S 751 mmHg 29%
    17:00 +32°C° 0 mm 2 m/S 751 mmHg 30%
    18:00 +31°C° 0 mm 2 m/S 751 mmHg 30%
    19:00 +29°C° 0 mm 4 m/S 751 mmHg 38%
    20:00 +28°C° 0 mm 5 m/S 752 mmHg 46%
    21:00 +26°C° 0 mm 7 m/S 753 mmHg 54%
    22:00 +24°C° 0 mm 7 m/S 753 mmHg 58%
    23:00 +23°C° 0 mm 7 m/S 753 mmHg 62%
    Mehr zeigen